STARLINK-32175, 60339

Orbit data source: Space-Track

STARLINK-32175, 60339 is a payload satellite owned by SpaceX/Seattle (US) in LEO that was launched on Fri, 02 Aug 2024 UTC via an FALCON 9 launch vehicle from the Air Force Eastern Test Range (AFETR). Payload-class satellites include a variety of spacecraft equipped with specific instruments for various scientific and technological missions. These include communications satellites like Starlink; space stations such as the ISS; scientific satellites like the Hubble; Earth observation satellites from companies like Planet Labs, Umbra, and HawkEye 360; GPS; miniature CubeSats for education and research; and military/defense satellites.

Loading next visibility...
Identifier
60339, 2024-136L
Orbit
LEO
Country
Flag of USUS
Related business
Manufacturer
SpaceX/Seattle
Mission
Operational Commercial Communications
Bus & Motor
STARLINK V2M, Unknown motor
Mass
730 kg wet, ~700 kg dry
Launch date (UTC)
2024-08-02 (1 year ago)
Launch vehicle
FALCON 9
Launch site
Air Force Eastern Test Range (AFETR)
Object type
Payload
Rocket body
Debris
Shape & HBR
Box + 2 Pan, 14.5 m
Radar Cross Section
33.884 m², Large (>1 m²)

Expand to show TLE details & history
Last TLE update: 13 hours ago

TLE from 13 hours ago
0 STARLINK-32175
1 60339U 24136L   25242.70611136 -.00000999  00000-0 -21610-4 0  9990
2 60339  53.1590 242.8001 0001131  81.6745 278.4384 15.30193905 60424
Epoch: 2025-08-30T16:56Z
TLE epoch observation values (Epoch: 2025-08-30T16:56:48.021Z)
Latitude
-0.00002°
Longitude
9.46344°
Altitude
476.019 km
Speed
7.629 km/s
True Right ascension
16h 11m 12s
True Declination
0° 00' 00"
Sunlit
Object was in daylight at epoch
Visualization orbit readout
Latitude
Unknown
Longitude
Unknown
Altitude
Unknown
Speed
Unknown
Apparent Right ascension
Unknown
Apparent Declination
Unknown
Sunlit
N/A
Visualization observer readout
Local Sidereal Time
21:42:12
Azimuth
Unknown
Elevation
Unknown
Doppler factor
Unknown
Orbital elements
Apogee altitude
476.265 km
Perigee altitude
474.715 km
Semi-major axis
6,853.627 km
Eccentricity
0.00011
Inclination
53.159°
RAAN
242.8001°
Arg. of periapsis
81.6745°
True anomaly
278.42558°
Mean anomaly
278.4384°
Eccentric anomaly
278.43199°
Mean motion
3.82527 °/min
Orbital period
94.11 mins
BSTAR
-0.00002161
Loading maneuver chart data...
Computing Atmospheric mass density...
Loading historical data...
Loading historical data...
Loading historical data...
Loading historical data...
Loading historical data...
Loading historical data...
Loading historical data...

Documentation

Showing up to 5 results
|